Tracking 32954 objects as of 18-Jan-2026
HD Live streaming from Space Station
objects crossing your sky now

STARLINK-34995

Track STARLINK-34995 now!
10-day predictions
STARLINK-34995 is classified as:


NORAD ID: 65285
Int'l Code: 2025-184N
Perigee: 556.0 km
Apogee: 557.2 km
Inclination: 97.6 °
Period: 95.6 minutes
Semi major axis: 6927 km
RCS: Unknown
Launch date: August 22, 2025
Source: United States (US)
Launch site: AIR FORCE WESTERN TEST RANGE (AFWTR)
Your satellite tracking list
Your tracking list is empty




NASA's NSSDC Master Catalog

Two Line Element Set (TLE):
1 65285U 25184N   26017.87944786  .00003087  00000-0  21802-3 0  9999
2 65285  97.6058  72.5481 0000875 101.1421 258.9905 15.05654150 23656
Source of the keplerian elements: AFSPC